Regional Weather Roundup
Issued by NWS

Home | Current Version | Previous Version | Text Only | Print | Product List | Glossary Off
Versions: 1 2 3 4 5 6 7 8 9 10 11 12 13 14 15 16 17 18 19 20 21 22 23 24 25 26 27 28 29 30 31 32 33 34 35 36 37 38 39 40 41 42 43 44 45 46 47 48 49 50

000
ASUS44 KMEG 152010
RWRTN
TENNESSEE HOURLY STATE WEATHER ROUNDUP
NATIONAL WEATHER SERVICE MEMPHIS TN
300 PM CDT TUE AUG 15 2017

TNZ002-004-019-021-049-052-054-088>092-152100-
WEST TENNESSEE

CITY           SKY/WX    TMP DP  RH WIND       PRES   REMARKS
MEMPHIS INTL   MOSUNNY   85  74  69 VRB3      29.91F HX  92
NWS MEMPHIS      N/A     84 N/A N/A MISG        N/A
JACKSON        CLOUDY    76  74  93 SE5       29.94F
COVINGTON      MOSUNNY   79  75  89 VRB3      29.92F
UNION CITY     MOSUNNY   75  72  88 S7        29.92S
PARIS          MOSUNNY   75  70  83 CALM      29.92F
LEXINGTON      SUNNY     75  73  94 CALM      29.94F
SELMER         PTSUNNY   73  73 100 SE5       29.94F
SAVANNAH       PTSUNNY   75  73  94 CALM      29.93F
$$

TNZ008-025-027-028-033-062-065-066-152100-
NORTH MIDDLE TENNESSEE

CITY           SKY/WX    TMP DP  RH WIND       PRES   REMARKS
NASHVILLE      PTSUNNY   89  71  55 NW8       29.95F HX  95
PORTLAND       PTSUNNY   84  72  65 W7        29.95F
CLARKSVILLE    CLOUDY    83  71  67 CALM      29.94F
SMYRNA         MOSUNNY   88  74  63 N12       29.95F HX  96
COOKEVILLE     PTSUNNY   84  72  65 NW3       29.96F
GALLATIN       CLOUDY    84  72  65 CALM      29.97F
CROSSVILLE     MOSUNNY   82  67  60 NW12      30.01F
$$

TNZ061-075-076-078-094-096-097-152100-
SOUTH MIDDLE TENNESSEE

CITY           SKY/WX    TMP DP  RH WIND       PRES   REMARKS
FAYETTEVILLE   SUNNY     82  73  74 SW8       29.96F
TULLAHOMA      MOSUNNY   84  70  61 W8        29.97F
WINCHESTER     PTSUNNY   79  73  83 NE12      29.97S
MCMINNVILLE    MOSUNNY   86  73  66 N8        29.96F HX  93
COLUMBIA       PTSUNNY   75  70  83 NW13G22   29.99R
SHELBYVILLE    PTSUNNY   84  73  70 NW6       29.94F HX  91
$$

TNZ017-018-042-046-047-152100-
NORTHEAST TENNESSEE

CITY           SKY/WX    TMP DP  RH WIND       PRES   REMARKS
TRI CITIES     CLOUDY    78  75  90 S8        29.96F THUNDER
ELIZABETHTON   MOSUNNY   77  72  83 NW3       29.97F
$$

TNZ012-013-036-069-073-074-152100-
CENTRAL EAST TENNESSEE

CITY           SKY/WX    TMP DP  RH WIND       PRES   REMARKS
KNOXVILLE      PTSUNNY   87  68  52 W7        29.93F HX  90
OAK RIDGE      MOSUNNY   88  68  51 VRB3      29.95F HX  91
DOWNTOWN KNOXV MOSUNNY   88  72  58 W5G15     29.92F HX  94
GATLINBURG     SUNNY     90  66  45 SW10      29.93F HX  92
MORRISTOWN     SUNNY     84  70  61 W9        29.94F
JACKSBORO      PTSUNNY   86  70  58 CALM      29.98F HX  90
$$

TNZ083-085-099-152100-
SOUTHEAST TENNESSEE

CITY           SKY/WX    TMP DP  RH WIND       PRES   REMARKS
CHATTANOOGA    PTSUNNY   86  71  60 N7        29.93F HX  91
DAYTON         PTCLDY    90  73  58 W8        29.92F HX  98
$$

SKY/WX REPORTED AS FAIR MEANS FEW OR NO CLOUDS BELOW
12 THOUSAND FEET.





USA.gov is the U.S. government's official web portal to all federal, state and local government web resources and services.